Terug naar catalogus

STARLINK-32100

ActiefCommunicatieVLEO
NORAD 59686·PAYLOAD·🇺🇸 United States

Gelanceerd May 8, 2024 vanaf Cape Canaveral Space Force Station

Loading…

Volgende Passages (komende 24 uur)

TLE

VersSource: CelesTrak SupGP

Epoch: Sep 14, 2026, 21:10 UTC

1 59686C 24086E   26257.88243056  .00055161  00000+0  19982-2 0  2577
2 59686  43.0043  53.3335 0001465 274.5339  69.4165 15.27546332    11

Volg STARLINK-32100 in realtime met AllMySat

Download on the App Store